This demonstration page uses our WeatherBlox Daily Observations layout. Learn more.

Left ArrowRight Arrow

53.62937, 11.41316

Hourly Observations for January 20, 2020

Temp ( °F °C ) Dew Point ( °F °C ) Humidity (%) Winds ( mph kmh ) Pressure ( in mb ) Visibility ( mi km ) Precip ( " mm )
6:50 am 06:50 Mostly Cloudy 37 3 37 3 100 100 W 3 6 30.83 1044 30 48 N/A
7:20 am 07:20 Mostly Cloudy 39 4 37 3 93 93 W 5 7 30.83 1044 30 48 N/A
7:50 am 07:50 Mostly Cloudy 39 4 37 3 93 93 W 3 6 30.83 1044 30 48 N/A
8:20 am 08:20 Partly Cloudy 39 4 37 3 93 93 W 5 7 30.83 1044 30 48 N/A
8:50 am 08:50 Partly Cloudy 39 4 37 3 93 93 W 5 7 30.83 1044 30 48 N/A
9:20 am 09:20 Partly Cloudy 39 4 37 3 93 93 W 5 7 30.86 1045 30 48 N/A
9:50 am 09:50 Partly Cloudy 39 4 39 4 100 100 WSW 7 11 30.86 1045 5 8 N/A
10:20 am 10:20 Partly Cloudy 41 5 39 4 93 93 W 5 7 30.86 1045 5 8 N/A
10:50 am 10:50 Mostly Cloudy 41 5 39 4 93 93 W 7 11 30.86 1045 30 48 N/A
11:20 am 11:20 Mostly Cloudy 41 5 39 4 93 93 W 7 11 30.86 1045 30 48 N/A
11:50 am 11:50 Mostly Cloudy 43 6 39 4 87 87 WSW 9 15 30.86 1045 30 48 N/A
12:20 pm 12:20 Mostly Sunny 43 6 41 5 93 93 WSW 9 15 30.86 1045 7 11 N/A
12:50 pm 12:50 Mostly Cloudy 45 7 39 4 81 81 WSW 10 17 30.86 1045 30 48 N/A
1:20 pm 13:20 Mostly Sunny 45 7 39 4 81 81 WSW 13 20 30.83 1044 7 11 N/A
1:50 pm 13:50 Mostly Sunny 45 7 39 4 81 81 WSW 12 19 30.83 1044 7 11 N/A
2:20 pm 14:20 Mostly Sunny 45 7 39 4 81 81 WSW 13 20 30.83 1044 7 11 N/A
2:50 pm 14:50 Mostly Sunny 45 7 39 4 81 81 W 12 19 30.83 1044 7 11 N/A
3:20 pm 15:20 Mostly Sunny 45 7 39 4 81 81 WSW 12 19 30.80 1043 7 11 N/A
3:50 pm 15:50 Mostly Sunny 45 7 39 4 81 81 WSW 10 17 30.80 1043 7 11 N/A
4:20 pm 16:20 Mostly Sunny 45 7 39 4 81 81 WSW 9 15 30.80 1043 7 11 N/A
4:50 pm 16:50 Mostly Clear 45 7 39 4 81 81 SW 7 11 30.80 1043 7 11 N/A
5:20 pm 17:20 Mostly Clear 43 6 39 4 87 87 WSW 8 13 30.80 1043 7 11 N/A
5:50 pm 17:50 Mostly Clear 43 6 37 3 81 81 SW 8 13 30.80 1043 7 11 N/A
6:20 pm 18:20 Mostly Clear 41 5 37 3 87 87 WSW 7 11 30.80 1043 7 11 N/A
6:50 pm 18:50 Mostly Clear 41 5 37 3 87 87 WSW 7 11 30.80 1043 7 11 N/A
7:20 pm 19:20 Mostly Clear 41 5 37 3 87 87 SW 8 13 30.80 1043 7 11 N/A
7:50 pm 19:50 Mostly Clear 41 5 37 3 87 87 SW 8 13 30.80 1043 7 11 N/A

Powered by AerisWeather